When you browse on this site, cookies collect data to enhance your experience and personalize the content and advertising you see.
Visit our Privacy Policy to learn more. By continuing to use the site, you agree to this use of cookies and data.
  • In Slovakia
  • List of Countries
  • For 7 days
  • Water Temperature
  • Satellite Maps
  • Weather Map
  • Weather Widgets
  • user-avatar
    Login

    Hourly Weather Schepki

    Today, 20 June, Thursday

    Time Temperature Precipitation Wind Pressure Humidity
    00:00 +17°C° 0.1 mm 2 mps 735 mmHg 84%
    01:00 +17°C° 0.1 mm 3 mps 735 mmHg 85%
    02:00 +17°C° 0.1 mm 3 mps 735 mmHg 86%
    03:00 +17°C° 0.6 mm 3 mps 735 mmHg 88%
    04:00 +17°C° 0.6 mm 3 mps 735 mmHg 90%
    05:00 +17°C° 0.6 mm 3 mps 735 mmHg 92%
    06:00 +18°C° 0.2 mm 3 mps 735 mmHg 91%
    07:00 +19°C° 0.2 mm 3 mps 735 mmHg 91%
    08:00 +20°C° 0.2 mm 4 mps 735 mmHg 90%
    09:00 +21°C° 0.5 mm 4 mps 735 mmHg 83%
    10:00 +23°C° 0.5 mm 5 mps 735 mmHg 77%
    11:00 +26°C° 0.5 mm 5 mps 735 mmHg 70%
    12:00 +26°C° 0.2 mm 5 mps 734 mmHg 71%
    13:00 +26°C° 0.2 mm 5 mps 734 mmHg 71%
    14:00 +26°C° 0.2 mm 5 mps 734 mmHg 71%
    15:00 +25°C° 0.3 mm 4 mps 734 mmHg 75%
    16:00 +23°C° 0.3 mm 4 mps 733 mmHg 78%
    17:00 +24°C° 0.3 mm 3 mps 733 mmHg 82%
    18:00 +22°C° 0.1 mm 3 mps 733 mmHg 83%
    19:00 +22°C° 0.1 mm 3 mps 733 mmHg 85%
    20:00 +21°C° 0.1 mm 3 mps 733 mmHg 86%
    21:00 +21°C° 0 mm 3 mps 733 mmHg 88%
    22:00 +20°C° 0 mm 3 mps 733 mmHg 90%
    23:00 +19°C° 0 mm 3 mps 733 mmHg 93%

    Tomorrow, 21 June, Friday

    Time Temperature Precipitation Wind Pressure Humidity
    00:00 +19°C° 0 mm 3 mps 733 mmHg 93%
    01:00 +19°C° 0 mm 3 mps 733 mmHg 94%
    02:00 +19°C° 0 mm 2 mps 733 mmHg 94%
    03:00 +19°C° 0 mm 2 mps 733 mmHg 95%
    04:00 +19°C° 0 mm 2 mps 733 mmHg 95%
    05:00 +19°C° 0 mm 2 mps 733 mmHg 96%
    06:00 +20°C° 0 mm 2 mps 734 mmHg 93%
    07:00 +21°C° 0 mm 3 mps 734 mmHg 90%
    08:00 +24°C° 0 mm 3 mps 734 mmHg 87%
    09:00 +25°C° 0.8 mm 3 mps 734 mmHg 82%
    10:00 +26°C° 0.8 mm 3 mps 734 mmHg 77%
    11:00 +27°C° 0.8 mm 3 mps 734 mmHg 72%
    12:00 +28°C° 0.5 mm 3 mps 734 mmHg 70%
    13:00 +28°C° 0.5 mm 3 mps 734 mmHg 68%
    14:00 +28°C° 0.5 mm 4 mps 734 mmHg 66%
    15:00 +28°C° 0.4 mm 3 mps 734 mmHg 68%
    16:00 +28°C° 0.4 mm 3 mps 734 mmHg 71%
    17:00 +27°C° 0.4 mm 3 mps 734 mmHg 73%
    18:00 +26°C° 0.4 mm 2 mps 733 mmHg 76%
    19:00 +25°C° 0.4 mm 2 mps 733 mmHg 80%
    20:00 +23°C° 0.4 mm 1 mps 733 mmHg 84%
    21:00 +22°C° 0 mm 1 mps 734 mmHg 85%
    22:00 +22°C° 0 mm 1 mps 734 mmHg 87%
    23:00 +21°C° 0 mm 1 mps 734 mmHg 89%

    Day after tomorrow, 22 June, Saturday

    Time Temperature Precipitation Wind Pressure Humidity
    00:00 +21°C° 0 mm 1 mps 734 mmHg 89%
    01:00 +20°C° 0 mm 1 mps 734 mmHg 89%
    02:00 +20°C° 0 mm 1 mps 734 mmHg 89%
    03:00 +20°C° 0.4 mm 1 mps 735 mmHg 91%
    04:00 +19°C° 0.4 mm 2 mps 735 mmHg 92%
    05:00 +19°C° 0.4 mm 2 mps 735 mmHg 94%
    06:00 +19°C° 0.2 mm 2 mps 735 mmHg 93%
    07:00 +20°C° 0.2 mm 2 mps 736 mmHg 92%
    08:00 +20°C° 0.2 mm 2 mps 736 mmHg 91%
    09:00 +20°C° 0.4 mm 3 mps 736 mmHg 91%
    10:00 +21°C° 0.4 mm 3 mps 736 mmHg 90%
    11:00 +21°C° 0.4 mm 3 mps 737 mmHg 90%
    12:00 +22°C° 0.9 mm 3 mps 737 mmHg 87%
    13:00 +22°C° 0.9 mm 3 mps 737 mmHg 83%
    14:00 +24°C° 0.9 mm 3 mps 737 mmHg 80%
    15:00 +24°C° 0.9 mm 3 mps 737 mmHg 81%
    16:00 +22°C° 0.9 mm 3 mps 737 mmHg 83%
    17:00 +22°C° 0.9 mm 3 mps 737 mmHg 84%
    18:00 +21°C° 0.2 mm 3 mps 737 mmHg 84%
    19:00 +20°C° 0.2 mm 3 mps 737 mmHg 84%
    20:00 +19°C° 0.2 mm 3 mps 738 mmHg 84%
    21:00 +18°C° 0 mm 4 mps 738 mmHg 83%
    22:00 +17°C° 0 mm 4 mps 738 mmHg 82%
    23:00 +15°C° 0 mm 4 mps 738 mmHg 81%

    23 June, Sunday

    Time Temperature Precipitation Wind Pressure Humidity
    00:00 +15°C° 0 mm 4 mps 738 mmHg 79%
    01:00 +14°C° 0 mm 5 mps 738 mmHg 77%
    02:00 +14°C° 0 mm 5 mps 738 mmHg 75%
    03:00 +14°C° 0 mm 5 mps 739 mmHg 71%
    04:00 +13°C° 0 mm 5 mps 739 mmHg 67%
    05:00 +13°C° 0 mm 5 mps 739 mmHg 64%
    06:00 +14°C° 0 mm 5 mps 739 mmHg 66%
    07:00 +14°C° 0 mm 5 mps 739 mmHg 69%
    08:00 +15°C° 0 mm 5 mps 740 mmHg 71%
    09:00 +16°C° 0 mm 5 mps 740 mmHg 71%
    10:00 +17°C° 0 mm 5 mps 740 mmHg 72%
    11:00 +19°C° 0 mm 5 mps 740 mmHg 72%
    12:00 +20°C° 0 mm 5 mps 740 mmHg 71%
    13:00 +21°C° 0 mm 5 mps 740 mmHg 70%
    14:00 +22°C° 0 mm 5 mps 740 mmHg 68%
    15:00 +22°C° 0 mm 5 mps 740 mmHg 70%
    16:00 +22°C° 0 mm 4 mps 740 mmHg 71%
    17:00 +22°C° 0 mm 4 mps 740 mmHg 73%
    18:00 +21°C° 0 mm 4 mps 740 mmHg 76%
    19:00 +20°C° 0 mm 3 mps 740 mmHg 80%
    20:00 +19°C° 0 mm 3 mps 740 mmHg 84%
    21:00 +18°C° 0 mm 3 mps 740 mmHg 84%
    22:00 +17°C° 0 mm 3 mps 741 mmHg 83%
    23:00 +16°C° 0 mm 3 mps 741 mmHg 83%

    24 June, Monday

    Time Temperature Precipitation Wind Pressure Humidity
    00:00 +16°C° 0 mm 3 mps 741 mmHg 78%
    01:00 +15°C° 0 mm 4 mps 741 mmHg 73%
    02:00 +14°C° 0 mm 4 mps 741 mmHg 68%
    03:00 +14°C° 0 mm 4 mps 741 mmHg 71%
    04:00 +14°C° 0 mm 4 mps 741 mmHg 74%
    05:00 +13°C° 0 mm 4 mps 741 mmHg 77%
    06:00 +15°C° 0 mm 4 mps 741 mmHg 77%
    07:00 +17°C° 0 mm 4 mps 742 mmHg 77%
    08:00 +18°C° 0 mm 4 mps 742 mmHg 76%
    09:00 +20°C° 0 mm 4 mps 742 mmHg 73%
    10:00 +21°C° 0 mm 4 mps 742 mmHg 69%
    11:00 +22°C° 0 mm 4 mps 743 mmHg 66%
    12:00 +23°C° 0 mm 4 mps 743 mmHg 65%
    13:00 +23°C° 0 mm 4 mps 743 mmHg 64%
    14:00 +23°C° 0 mm 4 mps 742 mmHg 64%
    15:00 +23°C° 0 mm 4 mps 742 mmHg 65%
    16:00 +24°C° 0 mm 3 mps 742 mmHg 66%
    17:00 +24°C° 0 mm 3 mps 742 mmHg 67%
    18:00 +21°C° 0 mm 3 mps 742 mmHg 70%
    19:00 +20°C° 0 mm 3 mps 742 mmHg 73%
    20:00 +18°C° 0 mm 3 mps 742 mmHg 77%
    21:00 +17°C° 0 mm 2 mps 743 mmHg 77%
    22:00 +17°C° 0 mm 2 mps 743 mmHg 78%
    23:00 +16°C° 0 mm 2 mps 743 mmHg 79%

    25 June, Tuesday

    Time Temperature Precipitation Wind Pressure Humidity
    00:00 +15°C° 0 mm 2 mps 743 mmHg 82%
    01:00 +15°C° 0 mm 2 mps 743 mmHg 84%
    02:00 +14°C° 0 mm 2 mps 743 mmHg 87%
    03:00 +14°C° 0 mm 2 mps 743 mmHg 86%
    04:00 +14°C° 0 mm 2 mps 743 mmHg 86%
    05:00 +14°C° 0 mm 2 mps 743 mmHg 85%
    06:00 +16°C° 0 mm 2 mps 743 mmHg 80%
    07:00 +18°C° 0 mm 2 mps 743 mmHg 76%
    08:00 +19°C° 0 mm 2 mps 743 mmHg 71%
    09:00 +21°C° 0 mm 2 mps 743 mmHg 65%
    10:00 +23°C° 0 mm 2 mps 743 mmHg 60%
    11:00 +24°C° 0 mm 2 mps 743 mmHg 54%
    12:00 +24°C° 0 mm 2 mps 743 mmHg 53%
    13:00 +25°C° 0 mm 2 mps 743 mmHg 51%
    14:00 +25°C° 0 mm 1 mps 743 mmHg 49%
    15:00 +25°C° 0 mm 1 mps 743 mmHg 52%
    16:00 +25°C° 0 mm 2 mps 742 mmHg 55%
    17:00 +25°C° 0 mm 2 mps 742 mmHg 58%
    18:00 +23°C° 0 mm 2 mps 742 mmHg 64%
    19:00 +21°C° 0 mm 2 mps 742 mmHg 70%
    20:00 +19°C° 0 mm 2 mps 742 mmHg 76%
    21:00 +18°C° 0 mm 2 mps 742 mmHg 78%
    22:00 +17°C° 0 mm 2 mps 742 mmHg 79%
    23:00 +16°C° 0 mm 2 mps 742 mmHg 81%
    Show more